{"data":{"norad_id":52628,"intl_designator":"2022-052AG","name":"STARLINK-4001","alt_names":[],"object_type":"PAYLOAD","status":"ACTIVE","operator":null,"country":"US","launch_date":"2022-05-14","launch_site_code":"AFETR","launch_vehicle":null,"mission":null,"orbit_class":"UNKNOWN","rcs_meters":null,"size_class":null,"mass_kg":null,"dimensions":null,"purposes":["comms"],"wikipedia_slug":null,"has_3d_model":false,"image_url":null,"decayed_at":null,"tle_current":{"epoch":"2026-09-20T04:19:48.465120Z","epoch_age_seconds":94099,"freshness":"FRESH","line1":"1 52628U 22052AG  26263.18042205  .00001428  00000+0  51840-4 0  9991","line2":"2 52628  53.1589 117.7531 0001229  91.1206 268.9938 15.35390780240321","mean_motion":15.3539078,"eccentricity":0.0001229,"inclination_deg":53.1589,"raan_deg":117.7531,"arg_perigee_deg":91.1206,"mean_anomaly_deg":268.9938,"bstar":5.184e-5,"rev_number":24032,"period_min":93.787198591879,"perigee_km":458.91963937755,"apogee_km":460.60039446431,"semimajor_km":6837.8970169209,"source":"CELESTRAK","updated_at":"2026-09-20T09:00:40.095218Z"}}}